Location: Banksville Park
(38.5557°N, 75.1182°W)
Time: 16:53:40
(UTC+00:00)

SAR-Lupe-1 - Pass Details

Date: 19 January 2021
Orbit: 482 x 484 km, 98.2° (Epoch: 02 March)

Event Time Altitude Azimuth Distance (km) Brightness Sun altitude
Exits shadow 23:50:38 14° 0° (N) 1,433 6.3 -19.8°
Maximum altitude 23:53:32 52° 286° (WNW) 604 4.8 -20.4°
Drops below altitude 10° 23:57:00 10° 209° (SSW) 1,655 7.2 -21.1°
Sets 23:59:05 0° 204° (SSW) 2,530 8.2 -21.5°
